EW8889 Weather Reports


Display with metric or nautical units.
time (UTC)temp
F
wind
direction
speed
MPH
gust
MPH
rain 1hr
in
rain 24hr
in
rain mn
in
humidity
%
barometer
mb
20260507050915 48 19 0.0 5.0 0.00 0.00 0.00 80 1014.2
20260507043916 48 39 0.0 6.0 0.00 0.00 0.00 81 1013.7
20260507030915 48 42 0.0 3.0 0.00 0.00 0.00 81 1013.4
20260507020917 48 41 0.0 3.0 0.00 0.00 0.00 80 1013.0
20260507010915 49 41 0.0 3.0 0.00 0.00 0.00 77 1012.7
20260507000912 52 41 0.0 0.0 0.00 0.00 0.00 76 1012.5
20260506230912 52 41 0.0 1.0 0.00 0.00 0.00 73 1012.1
20260506220912 52 41 0.0 2.0 0.00 0.00 0.00 71 1011.9
20260506210911 53 41 1.0 3.0 0.00 0.00 0.00 70 1011.7
20260506200907 53 41 1.0 3.0 0.00 0.00 0.00 67 1011.3
20260506190908 53 41 0.0 4.0 0.00 0.00 0.00 67 1010.7
20260506180910 54 32 2.0 6.0 0.00 0.00 0.00 65 1010.0
20260506170907 54 36 2.0 8.0 0.00 0.00 0.00 66 1009.6
20260506163913 53 37 5.0 12.0 0.00 0.00 0.00 68 1009.5
20260506150908 55 51 2.0 9.0 0.00 0.00 0.00 61 1009.3
20260506140907 56 12 2.0 11.0 0.00 0.00 0.00 57 1009.1
20260506130909 58 19 4.0 13.0 0.00 0.00 0.00 54 1008.6
20260506120909 58 15 4.0 12.0 0.00 0.00 0.00 58 1008.4
20260506110907 59 44 5.0 14.0 0.00 0.00 0.00 49 1008.1
20260506100907 57 78 4.0 12.0 0.00 0.00 0.00 62 1008.0
20260506090906 56 76 3.0 10.0 0.00 0.00 0.00 68 1007.9
20260506080858 55 53 1.0 9.0 0.00 0.00 0.00 77 1007.5
20260506060857 50 31 1.0 5.0 0.00 0.00 0.00 87 1007.4